TimeEST,TemperatureF,Dew PointF,Humidity,Sea Level PressureIn,VisibilityMPH,Wind Direction,Wind SpeedMPH,Gust SpeedMPH,PrecipitationIn,Events,Conditions,WindDirDegrees,DateUTC
12:15 AM,46.9,42.4,84,30.32,10.0,Calm,Calm,-,N/A,,Clear,0,2013-12-27 05:15:00
12:35 AM,46.4,43.0,88,30.32,10.0,Calm,Calm,-,N/A,,Clear,0,2013-12-27 05:35:00
12:55 AM,45.7,42.6,89,30.33,10.0,Calm,Calm,-,N/A,,Clear,0,2013-12-27 05:55:00
1:15 AM,45.3,42.3,89,30.33,10.0,Calm,Calm,-,N/A,,Clear,0,2013-12-27 06:15:00
1:35 AM,45.5,42.3,88,30.33,10.0,Calm,Calm,-,N/A,,Clear,0,2013-12-27 06:35:00
1:55 AM,44.8,41.9,90,30.32,10.0,Calm,Calm,-,N/A,,Clear,0,2013-12-27 06:55:00
2:15 AM,45.5,41.9,87,30.32,10.0,Calm,Calm,-,N/A,,Clear,0,2013-12-27 07:15:00
2:35 AM,45.3,42.3,89,30.33,10.0,Calm,Calm,-,N/A,,Clear,0,2013-12-27 07:35:00
2:55 AM,45.5,42.1,88,30.33,10.0,Calm,Calm,-,N/A,,Clear,0,2013-12-27 07:55:00
3:15 AM,44.2,41.4,90,30.34,10.0,Calm,Calm,-,N/A,,Clear,0,2013-12-27 08:15:00
3:35 AM,44.2,41.4,90,30.33,10.0,Calm,Calm,-,N/A,,Clear,0,2013-12-27 08:35:00
3:55 AM,44.2,41.4,90,30.33,10.0,Calm,Calm,-,N/A,,Clear,0,2013-12-27 08:55:00
4:15 AM,44.2,41.2,89,30.33,10.0,Calm,Calm,-,N/A,,Clear,0,2013-12-27 09:15:00
4:35 AM,43.9,40.5,88,30.34,10.0,Calm,Calm,-,N/A,,Clear,0,2013-12-27 09:35:00
4:55 AM,43.2,40.1,89,30.34,10.0,Calm,Calm,-,N/A,,Clear,0,2013-12-27 09:55:00
5:15 AM,42.8,40.1,90,30.34,10.0,Calm,Calm,-,N/A,,Clear,0,2013-12-27 10:15:00
5:35 AM,43.0,40.3,90,30.34,10.0,Calm,Calm,-,N/A,,Clear,0,2013-12-27 10:35:00
5:55 AM,42.3,39.4,90,30.34,10.0,Calm,Calm,-,N/A,,Clear,0,2013-12-27 10:55:00
6:15 AM,43.7,38.5,82,30.35,10.0,NE,3.5,-,N/A,,Clear,40,2013-12-27 11:15:00
6:35 AM,43.2,37.4,80,30.36,10.0,East,3.5,-,N/A,,Clear,100,2013-12-27 11:35:00
6:55 AM,42.3,38.1,85,30.37,10.0,Calm,Calm,-,N/A,,Clear,0,2013-12-27 11:55:00
7:15 AM,41.9,38.5,88,30.37,10.0,Calm,Calm,-,N/A,,Clear,0,2013-12-27 12:15:00
7:35 AM,41.4,38.3,89,30.38,10.0,Calm,Calm,-,N/A,,Clear,0,2013-12-27 12:35:00
7:55 AM,41.9,38.3,87,30.39,10.0,Calm,Calm,-,N/A,,Clear,0,2013-12-27 12:55:00
8:15 AM,43.7,38.7,82,30.39,10.0,NE,3.5,-,N/A,,Clear,40,2013-12-27 13:15:00
8:35 AM,46.2,38.7,75,30.39,10.0,NE,5.8,-,N/A,,Clear,40,2013-12-27 13:35:00
8:55 AM,47.7,39.4,73,30.40,10.0,NE,6.9,-,N/A,,Clear,50,2013-12-27 13:55:00
9:15 AM,48.9,39.4,70,30.41,10.0,NE,5.8,-,N/A,,Clear,50,2013-12-27 14:15:00
9:35 AM,50.7,39.2,65,30.42,10.0,ENE,5.8,-,N/A,,Clear,60,2013-12-27 14:35:00
9:55 AM,51.3,38.5,62,30.42,10.0,ENE,4.6,-,N/A,,Clear,70,2013-12-27 14:55:00
10:15 AM,52.3,38.1,58,30.42,10.0,ENE,8.1,-,N/A,,Clear,60,2013-12-27 15:15:00
10:35 AM,53.6,36.5,52,30.43,10.0,East,6.9,-,N/A,,Clear,80,2013-12-27 15:35:00
10:55 AM,54.9,35.6,48,30.42,10.0,ENE,6.9,-,N/A,,Clear,70,2013-12-27 15:55:00
11:15 AM,55.2,34.5,46,30.42,10.0,ENE,9.2,-,N/A,,Clear,60,2013-12-27 16:15:00
11:35 AM,56.3,34.7,44,30.41,10.0,ENE,8.1,-,N/A,,Clear,70,2013-12-27 16:35:00
11:55 AM,56.3,35.8,46,30.39,10.0,East,6.9,-,N/A,,Clear,80,2013-12-27 16:55:00
12:15 PM,56.3,36.5,47,30.40,10.0,NE,6.9,-,N/A,,Clear,40,2013-12-27 17:15:00
12:35 PM,56.8,36.7,47,30.39,10.0,NE,5.8,-,N/A,,Clear,40,2013-12-27 17:35:00
12:55 PM,56.8,36.7,47,30.38,10.0,ENE,8.1,-,N/A,,Clear,70,2013-12-27 17:55:00
1:15 PM,57.4,37.4,47,30.36,10.0,NE,5.8,-,N/A,,Clear,40,2013-12-27 18:15:00
1:35 PM,58.1,37.2,46,30.35,10.0,NE,6.9,-,N/A,,Clear,50,2013-12-27 18:35:00
1:55 PM,58.6,37.6,46,30.35,10.0,NE,9.2,-,N/A,,Clear,40,2013-12-27 18:55:00
2:15 PM,59.9,36.3,41,30.36,10.0,NNE,8.1,-,N/A,,Clear,30,2013-12-27 19:15:00
2:35 PM,60.1,37.6,43,30.36,10.0,NNE,8.1,-,N/A,,Clear,20,2013-12-27 19:35:00
3:00 PM,59.0,35.8,42,30.35,10.0,NNE,8.1,-,N/A,,Clear,20,2013-12-27 20:00:00
3:15 PM,59.2,35.8,42,30.36,10.0,NE,6.9,-,N/A,,Clear,40,2013-12-27 20:15:00
3:35 PM,59.0,37.0,44,30.35,10.0,NNE,5.8,-,N/A,,Clear,30,2013-12-27 20:35:00
3:55 PM,58.6,37.6,46,30.35,10.0,NE,6.9,-,N/A,,Clear,40,2013-12-27 20:55:00
4:15 PM,58.3,37.4,46,30.36,10.0,NE,6.9,-,N/A,,Clear,40,2013-12-27 21:15:00
4:35 PM,58.8,36.9,44,30.36,10.0,NE,8.1,-,N/A,,Clear,40,2013-12-27 21:35:00
4:55 PM,57.4,36.9,46,30.37,10.0,NE,8.1,-,N/A,,Clear,50,2013-12-27 21:55:00
5:15 PM,57.2,37.4,48,30.37,10.0,NE,5.8,-,N/A,,Clear,50,2013-12-27 22:15:00
5:35 PM,55.4,38.7,53,30.36,4.0,NE,4.6,-,N/A,,Clear,50,2013-12-27 22:35:00
5:55 PM,54.1,39.6,58,30.36,7.0,ENE,3.5,-,N/A,,Clear,60,2013-12-27 22:55:00
6:15 PM,54.1,39.2,57,30.37,10.0,Calm,Calm,-,N/A,,Clear,0,2013-12-27 23:15:00
6:35 PM,52.3,40.5,64,30.37,7.0,ENE,4.6,-,N/A,,Clear,60,2013-12-27 23:35:00
6:55 PM,52.2,39.0,61,30.37,10.0,East,4.6,-,N/A,,Clear,80,2013-12-27 23:55:00
7:15 PM,50.7,39.2,65,30.37,10.0,NE,4.6,-,N/A,,Clear,50,2013-12-28 00:15:00
7:35 PM,50.0,39.6,67,30.37,10.0,NE,3.5,-,N/A,,Clear,50,2013-12-28 00:35:00
7:55 PM,50.2,39.4,66,30.38,10.0,NE,3.5,-,N/A,,Clear,50,2013-12-28 00:55:00
8:15 PM,50.0,38.8,66,30.38,10.0,ENE,3.5,-,N/A,,Clear,60,2013-12-28 01:15:00
8:35 PM,48.2,39.2,71,30.39,10.0,ENE,4.6,-,N/A,,Clear,60,2013-12-28 01:35:00
8:55 PM,48.6,38.7,69,30.39,10.0,ENE,3.5,-,N/A,,Clear,70,2013-12-28 01:55:00
9:15 PM,48.0,38.3,69,30.39,10.0,Calm,Calm,-,N/A,,Clear,0,2013-12-28 02:15:00
9:35 PM,47.1,37.9,70,30.39,10.0,ENE,3.5,-,N/A,,Clear,70,2013-12-28 02:35:00
9:55 PM,45.7,38.7,76,30.39,10.0,Calm,Calm,-,N/A,,Clear,0,2013-12-28 02:55:00
10:15 PM,44.8,39.0,80,30.39,10.0,Calm,Calm,-,N/A,,Clear,0,2013-12-28 03:15:00
10:35 PM,45.5,37.9,75,30.39,10.0,ENE,3.5,-,N/A,,Clear,60,2013-12-28 03:35:00
10:55 PM,44.6,38.7,80,30.40,10.0,Calm,Calm,-,N/A,,Clear,0,2013-12-28 03:55:00
11:15 PM,44.2,38.7,81,30.39,10.0,ENE,3.5,-,N/A,,Clear,60,2013-12-28 04:15:00
11:35 PM,43.2,38.3,83,30.39,10.0,NE,3.5,-,N/A,,Clear,50,2013-12-28 04:35:00
11:55 PM,43.0,38.3,84,30.38,10.0,NE,4.6,-,N/A,,Clear,40,2013-12-28 04:55:00